Погода в Новом Егорлыке

Россия / Ростовская область     46°23′30″N   41°52′38″E
темп.,
°C
ветер,
м/с
пор.,
м/с
влажн.,
%
обл.,
%
осадки,
мм/ч
давл.,
гПа
погр.,
м
9 марта, вт
вт900:000юз6139116 0.0 1015465
03:00+1юз6148926 0.0 1014605
06:00+1зюз61482100 0.0 1014812
09:00+2зюз81294100 0.3 1014772
12:00+2з6977100 1.7 1015978
15:00+4зсз7951100 1.8 10161820
18:00+2з5106147 0.0 1017352
21:000з4116724 0.0 1019327
10 марта, ср
ср1000:00−1зсз497221 0.0 1020396
03:00−2сз377645 0.0 1021548
06:00−2сз3667100 0.0 1023817
09:00−1сз455998 0.0 10251043
12:000сз4550100 0.1 10251398
15:00+1ссз563889 0.1 10251518
18:00−1с3649100 0.0 1025245
21:00−3св3656100 0.0 1026362
11 марта, чт
чт1100:00−3св3552100 0.0 1026583
03:00−4св5651100 0.0 1026591
06:00−4св5749100 0.0 1027612
09:00−4всв6845100 0.0 1028759
12:00−3всв6737100 0.0 10271033
15:00−3всв6734100 0.0 10271261
18:00−4всв6835100 0.0 10271201
21:00−6всв7937100 0.0 10281027
12 марта, пт
пт1200:00−7всв793591 0.0 1029976
03:00−8всв793863 0.0 1029912
06:00−9всв69400 0.0 1031781
09:00−8всв68350 0.0 1033816
12:00−5в67260 0.0 10331042
15:00−3в56230 0.0 10321270
18:00−4в46280 0.0 1033787
21:00−5в47330 0.0 1034492
13 марта, сб
сб1300:00−6вюв37340 0.0 1035476
03:00−7вюв37350 0.0 1035345
06:00−7вюв48373 0.0 1035333
09:00−5юв68281 0.0 1036819
12:00−1вюв68280 0.0 10351025
15:000вюв68280 0.0 10321055
18:00−2вюв59350 0.0 1031390
21:00−3вюв612350 0.0 1031516